Location: Gazon
(48.1318°N, 1.2708°W)
Time: 02:03:03
(UTC+00:00)

Cosmos 1269 Rocket - Pass Details

Date: 18 September 2020
Orbit: 772 x 780 km, 74.1° (Epoch: 29 October)

Event Time Altitude Azimuth Distance (km) Brightness Sun altitude
Rises 21:14:37 0° 334° (NNW) 3,273 8.3 -29.0°
Reaches altitude 10° 21:17:02 10° 331° (NNW) 2,342 7.3 -29.3°
Enters shadow 21:21:52 57° 273° (W) 917 4.5 -29.9°
